User: anonymous   Login
Location: Unspecified
(0.0000°N, 0.0000°E)
Time: 21:16:42
(UTC+00:00)
Language:

Himawari 2 - Orbit

View from above orbital plane
View from above orbital plane
View from above satellite
View from above satellite

Ground track
Ground track

The orbit data is extracted from the following two-line orbital elements,

1 12677U 81076A   17141.45194962 -.00000087 +00000-0 +00000-0 0  9995
2 12677 014.1164 336.0144 0010517 241.7348 091.2503 00.99548699099238
Epoch (UTC): 21 May 2017 10:50:48
Eccentricity: 0.0010517
inclination: 14.1164°
perigee height: 35945 km
apogee height: 36035 km
right ascension of ascending node: 336.0144°
argument of perigee: 241.7348°
revolutions per day: 0.99548699
mean anomaly at epoch: 91.2503°
orbit number at epoch: 9923

The dashed part of the orbit path shows where the satellite is in the earth's shadow,  

DLR